Retour au catalogue

DELTA 1 DEB

ActifSSO
NORAD 10843·DEBRIS·🇺🇸 United States

Lancé Jul 29, 1976 depuis Vandenberg Space Force Base

Loading…

Prochains Passages (prochaines 24 heures)

TLE

FraisSource: Space-Track

Époque: Sep 14, 2026, 10:11 UTC

1 10843U 76077CP  26257.42475853 -.00000013  00000-0  18058-3 0  9993
2 10843 101.7266 228.0517 0117370 114.4854  36.3872 12.58581684300462

Suivez DELTA 1 DEB en temps réel avec AllMySat

Download on the App Store